{"data":{"norad_id":62093,"intl_designator":"2024-220F","name":"STARLINK-11345 [DTC]","alt_names":[],"object_type":"PAYLOAD","status":"ACTIVE","operator":null,"country":"US","launch_date":"2024-11-25","launch_site_code":"AFETR","launch_vehicle":null,"mission":null,"orbit_class":"UNKNOWN","rcs_meters":null,"size_class":null,"mass_kg":null,"dimensions":null,"purposes":["comms"],"wikipedia_slug":null,"has_3d_model":false,"image_url":null,"decayed_at":null,"tle_current":{"epoch":"2026-05-24T20:46:30.509760Z","epoch_age_seconds":79819,"freshness":"FRESH","line1":"1 62093U 24220F   26144.86563090  .00163733  00000+0  12527-2 0  9995","line2":"2 62093  42.9986 303.9122 0001412 282.8132  77.2578 15.70873836 86934","mean_motion":15.70873836,"eccentricity":0.0001412,"inclination_deg":42.9986,"raan_deg":303.9122,"arg_perigee_deg":282.8132,"mean_anomaly_deg":77.2578,"bstar":0.0012527,"rev_number":8693,"period_min":91.668723929272,"perigee_km":355.44743729202,"apogee_km":357.3492700759,"semimajor_km":6734.535353684,"source":"CELESTRAK","updated_at":"2026-05-25T13:38:19.557900Z"}}}